Regional Weather Roundup
Issued by NWS Portland, ME

Home | Current Version | Previous Version | Text Only | Print | Product List | Glossary On
Versions: 1 2 3 4 5 6 7 8 9 10 11 12 13 14 15 16 17 18 19 20 21 22 23 24 25 26 27 28 29 30 31 32 33 34 35 36 37 38 39 40 41 42 43 44 45 46 47 48 49 50
000
ASUS41 KGYX 281810
RWRGYX
WEATHER ROUNDUP FOR MAINE AND NEW HAMPSHIRE
NATIONAL WEATHER SERVICE GRAY ME
200 PM EDT TUE MAR 28 2017

MEZ002-005-006-010-012-015-018-020-021-024-026-027-029-281900-
MAINE

CITY           SKY/WX    TMP DP  RH WIND       PRES   REMARKS
PORTLAND       CLOUDY    35  33  92 E5        30.03F
6HR MIN TEMP:  33; 6HR MAX TEMP:  36; 6HR PCP: TRACE;

SANFORD        CLOUDY    39  34  82 VRB5      30.01F
BAR HARBOR     CLOUDY    38  32  79 E3        30.04F
WISCASSET      CLOUDY    38  35  89 CALM      30.03F
6HR MIN TEMP:  34; 6HR MAX TEMP:  38; 6HR PCP: TRACE;

ROCKLAND       CLOUDY    37  33  85 E7        30.03F
FRYEBURG       CLOUDY    37  33  85 S5        30.00F
6HR MIN TEMP:  32; 6HR MAX TEMP:  37;

LEWISTONAUBURN CLOUDY    37  34  89 S6        30.01F
AUGUSTA        CLOUDY    34  31  88 S5        30.01F
6HR MIN TEMP:  30; 6HR MAX TEMP:  34;

WATERVILLE     CLOUDY    35  32  88 CALM      29.99F
BANGOR         CLOUDY    33  32  96 S6        30.03F
6HR MIN TEMP:  31; 6HR MAX TEMP:  34; 6HR PCP: TRACE;

GREENVILLE       N/A     29  29 100 S7        29.92F
6HR MIN TEMP:  26; 6HR MAX TEMP:  29; 6HR PCP:  0.02;

MILLINOCKET    CLOUDY    33  31  92 VRB5      30.02F
6HR MIN TEMP:  27; 6HR MAX TEMP:  33;

HOULTON        CLOUDY    30  28  92 SE9       30.00F
6HR MIN TEMP:  27; 6HR MAX TEMP:  31; 6HR PCP: TRACE;

PRESQUE ISLE   MIX PCPN  31  28  89 SE9       30.00F
6HR MIN TEMP:  27; 6HR MAX TEMP:  31; 6HR PCP:  0.01;

FRENCHVILLE    LGT SNOW  29  25  85 SE9       29.96S FOG
6HR MIN TEMP:  23; 6HR MAX TEMP:  29; 6HR PCP:  0.03;

CARIBOU        MIX PCPN  31  27  85 SE9       29.98F FOG
6HR MIN TEMP:  26; 6HR MAX TEMP:  31; 6HR PCP:  0.04;

$$

NHZ002-005-008-009-011-012-014-281900-
NEW HAMPSHIRE

CITY           SKY/WX    TMP DP  RH WIND       PRES   REMARKS
PORTSMOUTH     CLOUDY    38  34  85 E3        30.00F
ROCHESTER      CLOUDY    37  33  85 SE5       29.99F
6HR MIN TEMP:  33; 6HR MAX TEMP:  37;

NASHUA         CLOUDY    40  36  86 CALM      30.00F
MANCHESTER     CLOUDY    40  33  76 NE5       29.98F
6HR MIN TEMP:  35; 6HR MAX TEMP:  40;

CONCORD        CLOUDY    40  35  83 CALM      29.99F
6HR MIN TEMP:  34; 6HR MAX TEMP:  40; 6HR PCP: TRACE;

LACONIA        MIX PCPN  37  34  89 E6        29.99F
PLYMOUTH       CLOUDY    37  34  91 E3        29.98F
BERLIN         CLOUDY    44  33  65 N5        29.91F
6HR MIN TEMP:  33; 6HR MAX TEMP:  44;

WHITEFIELD     CLOUDY    46  37  71 W5        29.90F
6HR MIN TEMP:  34; 6HR MAX TEMP:  47;

JAFFREY        CLOUDY    39  37  92 CALM      29.96F
6HR MIN TEMP:  34; 6HR MAX TEMP:  40;

KEENE          CLOUDY    43  37  81 N3        29.97S
LEBANON        CLOUDY    42  36  79 NE6       29.94F
6HR MIN TEMP:  36; 6HR MAX TEMP:  42; 6HR PCP: TRACE;

MT WASHINGTON  FOG       36  36 100 W36         N/A  VSB 0
6HR MIN TEMP:  34; 6HR MAX TEMP:  35;

$$

VTZ005-007-008-281900-
VERMONT

CITY           SKY/WX    TMP DP  RH WIND       PRES   REMARKS
ST JOHNSBURY     N/A     43  38  82 MISG      29.90F
MONTPELIER     CLOUDY    43  39  86 S14       29.93F
BURLINGTON     LGT RAIN  46  43  89 NW7       29.88S
$$

MAZ007-012-024-CTZ003-RIZ002-NYZ038-NYZ072-281900-
SOUTHERN NEW ENGLAND AND NY

CITY           SKY/WX    TMP DP  RH WIND       PRES   REMARKS
BOSTON         CLOUDY    40  38  93 E9        30.01S
WORCESTER      FOG       37  36  96 NE3       29.96S VSB 1/4
NANTUCKET      PTSUNNY   45  38  76 NE13      29.98S
PROVIDENCE     LGT RAIN  43  39  86 CALM      30.00S
HARTFORD       LGT RAIN  43  41  93 SW5       29.99R FOG
ALBANY         LGT RAIN  48  43  82 S7        29.92F
NEW YORK CITY  LGT RAIN  43  40  89 NE10      29.94R FOG
$$

ANZ081-ANZ082-ANZ150-NHZ014-MEZ023>029-281900-
COASTAL MARINE OBSERVATIONS

STATION/POSITION TIME  TEMP    WIND        PRES    WAVE
                       AIR SEA DIR/SP/G            HT/PER
                 (UTC) (F)     (DEG/KT/KT) (MB)    (FT/S)
MOUNT DESERT ROC 1800   35                 1017.1F
MATINICUS ROCK   1700   35      60/  9/ 10 1016.7F
ISLE OF SHOALS   1700   36      30/  9/ 10 1016.5F
$$

.............KEY..............
   WCI - WIND CHILL
   TC  - TEMPERATURE IN CELSIUS
   VSB - VISIBILITY IN MILES
   HX  - HEAT INDEX
   FAIR- INDICATES FEW OR NO CLOUDS BELOW 12,000 FT, WITH NO
         SIGNIFICANT WEATHER AND/OR OBSTRUCTIONS TO VISIBILITY.






USA.gov is the U.S. government's official web portal to all federal, state and local government web resources and services.